TimeCST,TemperatureF,Dew PointF,Humidity,Sea Level PressureIn,VisibilityMPH,Wind Direction,Wind SpeedMPH,Gust SpeedMPH,PrecipitationIn,Events,Conditions,WindDirDegrees,DateUTC
12:55 AM,19.0,14.0,81,30.32,10.0,WSW,4.6,-,N/A,,Clear,240,2012-12-30 06:55:00
1:55 AM,19.9,14.0,78,30.35,10.0,WSW,5.8,-,N/A,,Clear,240,2012-12-30 07:55:00
2:55 AM,18.0,14.0,84,30.37,9.0,SW,3.5,-,N/A,,Clear,230,2012-12-30 08:55:00
3:55 AM,17.1,14.0,88,30.35,8.0,SW,3.5,-,N/A,,Clear,230,2012-12-30 09:55:00
4:55 AM,17.1,12.9,84,30.36,7.0,SW,4.6,-,N/A,,Clear,220,2012-12-30 10:55:00
5:55 AM,17.1,12.9,84,30.37,7.0,SSW,6.9,-,N/A,,Clear,210,2012-12-30 11:55:00
6:55 AM,17.1,12.9,84,30.37,7.0,SSW,4.6,-,N/A,,Clear,210,2012-12-30 12:55:00
7:55 AM,16.0,12.9,88,30.36,6.0,SSW,3.5,-,N/A,,Clear,200,2012-12-30 13:55:00
8:55 AM,23.0,18.0,81,30.37,10.0,SW,8.1,-,N/A,,Clear,220,2012-12-30 14:55:00
9:55 AM,27.0,18.0,69,30.37,10.0,SSW,6.9,-,N/A,,Clear,210,2012-12-30 15:55:00
10:55 AM,32.0,19.9,61,30.37,10.0,SSW,9.2,-,N/A,,Clear,210,2012-12-30 16:55:00
11:55 AM,34.0,21.0,59,30.32,10.0,SSW,6.9,-,N/A,,Clear,200,2012-12-30 17:55:00
12:55 PM,37.0,23.0,57,30.27,10.0,SSW,9.2,-,N/A,,Clear,210,2012-12-30 18:55:00
1:55 PM,37.0,24.1,59,30.25,10.0,South,10.4,-,N/A,,Clear,180,2012-12-30 19:55:00
2:55 PM,39.0,25.0,57,30.24,10.0,South,12.7,-,N/A,,Clear,190,2012-12-30 20:55:00
3:55 PM,37.9,24.1,57,30.22,10.0,South,12.7,20.7,N/A,,Clear,180,2012-12-30 21:55:00
4:55 PM,37.0,24.1,59,30.19,10.0,South,10.4,-,N/A,,Clear,190,2012-12-30 22:55:00
5:55 PM,37.0,24.1,59,30.17,10.0,South,10.4,-,N/A,,Clear,190,2012-12-30 23:55:00
6:55 PM,37.9,23.0,55,30.16,10.0,South,15.0,23.0,N/A,,Clear,190,2012-12-31 00:55:00
7:55 PM,37.0,21.9,54,30.17,10.0,SSW,13.8,23.0,N/A,,Clear,210,2012-12-31 01:55:00
8:55 PM,37.0,21.0,52,30.15,10.0,SSW,13.8,23.0,N/A,,Clear,210,2012-12-31 02:55:00
9:55 PM,37.0,21.0,52,30.14,10.0,SSW,9.2,-,N/A,,Clear,200,2012-12-31 03:55:00
10:55 PM,37.0,21.0,52,30.14,10.0,SW,9.2,-,N/A,,Clear,220,2012-12-31 04:55:00
11:55 PM,37.0,19.9,50,30.13,10.0,SW,11.5,20.7,N/A,,Clear,220,2012-12-31 05:55:00